Time,TemperatureF,DewpointF,PressureIn,WindDirection,WindDirectionDegrees,WindSpeedMPH,WindSpeedGustMPH,Humidity,HourlyPrecipIn,Conditions,Clouds,dailyrainin,SoftwareType,DateUTC
2013-04-02 00:00:00,0.0,-69.2,30.05,SSE,158,0.0,0.0,2,0.00,CLR,,0.00,WeatherDisplay:10.37,2013-04-02 07:00:00,
2013-04-02 00:05:00,0.0,-69.2,30.05,SSE,158,0.0,0.0,2,0.00,CLR,,0.00,WeatherDisplay:10.37,2013-04-02 07:05:00,
2013-04-02 00:10:00,0.0,-69.2,30.05,South,175,0.0,0.0,2,0.00,CLR,,0.00,WeatherDisplay:10.37,2013-04-02 07:10:00,
2013-04-02 00:15:00,0.0,-69.2,30.05,South,175,0.0,0.0,2,0.00,CLR,,0.00,WeatherDisplay:10.37,2013-04-02 07:15:00,
2013-04-02 00:20:00,0.0,-69.2,30.05,South,175,0.0,0.0,2,0.00,CLR,,0.00,WeatherDisplay:10.37,2013-04-02 07:20:00,
2013-04-02 00:25:00,0.0,-69.2,30.06,South,175,0.0,0.0,2,0.00,CLR,,0.00,WeatherDisplay:10.37,2013-04-02 07:25:00,
2013-04-02 00:30:00,0.0,-69.2,30.06,South,175,0.0,0.0,2,0.00,CLR,,0.00,WeatherDisplay:10.37,2013-04-02 07:30:00,
2013-04-02 00:35:00,0.0,-69.2,30.06,South,175,0.0,0.0,2,0.00,CLR,,0.00,WeatherDisplay:10.37,2013-04-02 07:35:00,
2013-04-02 00:40:00,0.0,-69.2,30.06,South,175,0.0,0.0,2,0.00,CLR,,0.00,WeatherDisplay:10.37,2013-04-02 07:40:00,
2013-04-02 00:45:00,0.0,-69.2,30.06,South,175,0.0,0.0,2,0.00,CLR,,0.00,WeatherDisplay:10.37,2013-04-02 07:45:00,
2013-04-02 00:50:00,0.0,-69.2,30.06,South,175,0.0,0.0,2,0.00,CLR,,0.00,WeatherDisplay:10.37,2013-04-02 07:50:00,
2013-04-02 00:55:00,0.0,-69.2,30.06,South,175,0.0,0.0,2,0.00,CLR,,0.00,WeatherDisplay:10.37,2013-04-02 07:55:00,
2013-04-02 01:00:00,0.0,-69.2,30.06,South,175,0.0,0.0,2,0.00,CLR,,0.00,WeatherDisplay:10.37,2013-04-02 08:00:00,
2013-04-02 01:05:00,0.0,-69.2,30.06,South,175,0.0,0.0,2,0.00,CLR,,0.00,WeatherDisplay:10.37,2013-04-02 08:05:00,
2013-04-02 01:10:00,0.0,-69.2,30.06,South,175,0.0,0.0,2,0.00,CLR,,0.00,WeatherDisplay:10.37,2013-04-02 08:10:00,
2013-04-02 01:15:00,0.0,-69.2,30.07,South,175,0.0,0.0,2,0.00,CLR,,0.00,WeatherDisplay:10.37,2013-04-02 08:15:00,
2013-04-02 01:20:00,0.0,-69.2,30.07,South,175,0.0,0.0,2,0.00,CLR,,0.00,WeatherDisplay:10.37,2013-04-02 08:20:00,
2013-04-02 01:25:00,0.0,-69.2,30.07,South,175,0.0,0.0,2,0.00,CLR,CLR,0.00,WeatherDisplay:10.37,2013-04-02 08:25:00,
2013-04-02 01:30:00,0.0,-69.2,30.07,South,175,0.0,0.0,2,0.00,CLR,CLR,0.00,WeatherDisplay:10.37,2013-04-02 08:30:00,
2013-04-02 01:35:00,0.0,-69.2,30.07,South,175,0.0,0.0,2,0.00,CLR,CLR,0.00,WeatherDisplay:10.37,2013-04-02 08:35:00,
2013-04-02 01:40:00,0.0,-69.2,30.07,South,175,0.0,0.0,2,0.00,CLR,,0.00,WeatherDisplay:10.37,2013-04-02 08:40:00,
2013-04-02 01:45:00,0.0,-69.2,30.07,South,175,0.0,0.0,2,0.00,CLR,,0.00,WeatherDisplay:10.37,2013-04-02 08:45:00,
2013-04-02 01:50:00,0.0,-69.2,30.07,South,175,0.0,0.0,2,0.00,CLR,,0.00,WeatherDisplay:10.37,2013-04-02 08:50:00,
2013-04-02 01:55:00,0.0,-69.2,30.07,South,175,0.0,0.0,2,0.00,CLR,CLR,0.00,WeatherDisplay:10.37,2013-04-02 08:55:00,
2013-04-02 02:00:00,0.0,-69.2,30.07,South,184,0.0,0.0,2,0.00,CLR,,0.00,WeatherDisplay:10.37,2013-04-02 09:00:00,
2013-04-02 02:05:00,0.0,-69.2,30.07,South,185,0.0,2.0,2,0.00,CLR,CLR,0.00,WeatherDisplay:10.37,2013-04-02 09:05:00,
2013-04-02 02:10:00,0.0,-69.2,30.07,SSE,164,0.0,0.0,2,0.00,CLR,,0.00,WeatherDisplay:10.37,2013-04-02 09:10:00,
2013-04-02 02:15:00,0.0,-69.2,30.07,SSE,164,0.0,0.0,2,0.00,CLR,,0.00,WeatherDisplay:10.37,2013-04-02 09:15:00,
2013-04-02 02:20:00,0.0,-69.2,30.07,SSE,165,3.5,3.5,2,0.00,CLR,,0.00,WeatherDisplay:10.37,2013-04-02 09:20:00,
2013-04-02 02:25:00,0.0,-69.2,30.07,South,169,0.0,0.0,2,0.00,CLR,,0.00,WeatherDisplay:10.37,2013-04-02 09:25:00,
2013-04-02 02:30:00,0.0,-69.2,30.07,South,169,0.0,0.0,2,0.00,CLR,,0.00,WeatherDisplay:10.37,2013-04-02 09:30:00,
2013-04-02 02:35:00,0.0,-69.2,30.07,South,169,0.0,0.0,2,0.00,CLR,,0.00,WeatherDisplay:10.37,2013-04-02 09:35:00,
2013-04-02 02:40:00,0.0,-69.2,30.07,South,169,0.0,0.0,2,0.00,CLR,,0.00,WeatherDisplay:10.37,2013-04-02 09:40:00,
2013-04-02 02:45:00,0.0,-69.2,30.07,South,169,0.0,0.0,2,0.00,CLR,,0.00,WeatherDisplay:10.37,2013-04-02 09:45:00,
2013-04-02 02:50:00,0.0,-69.2,30.07,South,169,0.0,0.0,2,0.00,CLR,,0.00,WeatherDisplay:10.37,2013-04-02 09:50:00,
2013-04-02 02:55:00,0.0,-69.2,30.07,South,169,0.0,0.0,2,0.00,CLR,CLR,0.00,WeatherDisplay:10.37,2013-04-02 09:55:00,
2013-04-02 03:00:00,0.0,-69.2,30.07,South,171,1.0,3.0,2,0.00,CLR,CLR,0.00,WeatherDisplay:10.37,2013-04-02 10:00:00,
2013-04-02 03:05:00,0.0,-69.2,30.07,SSW,196,0.0,0.0,2,0.00,CLR,,0.00,WeatherDisplay:10.37,2013-04-02 10:05:00,
2013-04-02 03:10:00,0.0,-69.2,30.07,SSW,196,0.0,0.0,2,0.00,CLR,CLR,0.00,WeatherDisplay:10.37,2013-04-02 10:10:00,
2013-04-02 03:15:00,0.0,-69.2,30.07,SSW,196,0.0,0.0,2,0.00,CLR,,0.00,WeatherDisplay:10.37,2013-04-02 10:15:00,
2013-04-02 03:20:00,0.0,-69.2,30.07,SSW,196,0.0,0.0,2,0.00,CLR,,0.00,WeatherDisplay:10.37,2013-04-02 10:20:00,
2013-04-02 03:25:00,0.0,-69.2,30.07,SSW,196,0.0,0.0,2,0.00,CLR,CLR,0.00,WeatherDisplay:10.37,2013-04-02 10:25:00,
2013-04-02 03:30:00,0.0,-69.2,30.07,SSW,192,1.0,4.0,2,0.00,CLR,CLR,0.00,WeatherDisplay:10.37,2013-04-02 10:30:00,
2013-04-02 03:35:00,0.0,-69.2,30.07,SSE,168,0.0,1.0,2,0.00,CLR,CLR,0.00,WeatherDisplay:10.37,2013-04-02 10:35:00,
2013-04-02 03:40:00,0.0,-69.2,30.07,SE,137,0.0,0.0,2,0.00,CLR,,0.00,WeatherDisplay:10.37,2013-04-02 10:40:00,
2013-04-02 03:45:00,0.0,-69.2,30.07,SSE,168,0.0,0.0,2,0.00,CLR,,0.00,WeatherDisplay:10.37,2013-04-02 10:45:00,
2013-04-02 03:50:00,0.0,-69.2,30.07,SSE,168,0.0,0.0,2,0.00,CLR,,0.00,WeatherDisplay:10.37,2013-04-02 10:50:00,
2013-04-02 03:55:00,0.0,-69.2,30.07,SSE,168,0.0,0.0,2,0.00,CLR,,0.00,WeatherDisplay:10.37,2013-04-02 10:55:00,
2013-04-02 04:00:00,0.0,-69.2,30.07,West,270,3.5,3.5,2,0.00,CLR,,0.00,WeatherDisplay:10.37,2013-04-02 11:00:00,
2013-04-02 04:05:00,0.0,-69.2,30.07,SSW,203,0.0,5.0,2,0.00,CLR,CLR,0.00,WeatherDisplay:10.37,2013-04-02 11:05:00,
2013-04-02 04:10:00,0.0,-69.2,30.07,South,171,2.3,0.0,2,0.00,CLR,,0.00,WeatherDisplay:10.37,2013-04-02 11:10:00,
2013-04-02 04:15:00,0.0,-69.2,30.07,SE,130,1.2,1.2,2,0.00,CLR,,0.00,WeatherDisplay:10.37,2013-04-02 11:15:00,
2013-04-02 04:20:00,0.0,-69.2,30.07,SSW,203,1.2,1.2,2,0.00,CLR,,0.00,WeatherDisplay:10.37,2013-04-02 11:20:00,
2013-04-02 04:25:00,0.0,-69.2,30.07,SE,146,0.0,4.0,2,0.00,CLR,CLR,0.00,WeatherDisplay:10.37,2013-04-02 11:25:00,
2013-04-02 04:30:00,0.0,-69.2,30.08,SSE,151,0.0,0.0,2,0.00,CLR,CLR,0.00,WeatherDisplay:10.37,2013-04-02 11:30:00,
2013-04-02 04:35:00,0.0,-69.2,30.08,SSE,151,0.0,0.0,2,0.00,CLR,,0.00,WeatherDisplay:10.37,2013-04-02 11:35:00,
2013-04-02 04:40:00,0.0,-69.2,30.08,SSW,208,1.2,1.2,2,0.00,CLR,,0.00,WeatherDisplay:10.37,2013-04-02 11:40:00,
2013-04-02 04:45:00,0.0,-69.2,30.08,South,189,1.2,0.0,2,0.00,CLR,,0.00,WeatherDisplay:10.37,2013-04-02 11:45:00,
2013-04-02 04:50:00,0.0,-69.2,30.07,South,189,0.0,0.0,2,0.00,CLR,,0.00,WeatherDisplay:10.37,2013-04-02 11:50:00,
2013-04-02 04:55:00,0.0,-69.2,30.08,SSW,196,0.0,0.0,2,0.00,CLR,,0.00,WeatherDisplay:10.37,2013-04-02 11:55:00,
2013-04-02 05:00:00,0.0,-69.2,30.08,SSW,195,0.0,1.0,2,0.00,CLR,CLR,0.00,WeatherDisplay:10.37,2013-04-02 12:00:00,
2013-04-02 05:05:00,0.0,-69.2,30.08,South,188,2.0,5.0,2,0.00,CLR,CLR,0.00,WeatherDisplay:10.37,2013-04-02 12:05:00,
2013-04-02 05:10:00,0.0,-69.2,30.08,South,171,0.0,0.0,2,0.00,CLR,,0.00,WeatherDisplay:10.37,2013-04-02 12:10:00,
2013-04-02 05:15:00,0.0,-69.2,30.08,South,171,0.0,0.0,2,0.00,CLR,,0.00,WeatherDisplay:10.37,2013-04-02 12:15:00,
2013-04-02 05:20:00,0.0,-69.2,30.08,South,181,2.3,2.3,2,0.00,CLR,,0.00,WeatherDisplay:10.37,2013-04-02 12:20:00,
2013-04-02 05:25:00,0.0,-69.2,30.08,South,176,0.0,3.0,2,0.00,CLR,CLR,0.00,WeatherDisplay:10.37,2013-04-02 12:25:00,
2013-04-02 05:30:00,0.0,-69.2,30.08,South,189,2.3,0.0,2,0.00,CLR,,0.00,WeatherDisplay:10.37,2013-04-02 12:30:00,
2013-04-02 05:35:00,0.0,-69.2,30.08,South,179,0.0,0.0,2,0.00,CLR,,0.00,WeatherDisplay:10.37,2013-04-02 12:35:00,
2013-04-02 05:40:00,0.0,-69.2,30.08,South,172,0.0,0.0,2,0.00,CLR,,0.00,WeatherDisplay:10.37,2013-04-02 12:40:00,
2013-04-02 05:45:00,0.0,-69.2,30.08,South,188,3.0,3.0,2,0.00,CLR,,0.00,WeatherDisplay:10.37,2013-04-02 12:45:00,
2013-04-02 05:50:00,0.0,-69.2,30.08,SSW,212,1.2,0.0,2,0.00,CLR,,0.00,WeatherDisplay:10.37,2013-04-02 12:50:00,
2013-04-02 05:55:00,0.0,-69.2,30.08,SSW,212,0.0,0.0,2,0.00,CLR,,0.00,WeatherDisplay:10.37,2013-04-02 12:55:00,
2013-04-02 06:00:00,0.0,-69.2,30.08,SSW,212,0.0,0.0,2,0.00,CLR,,0.00,WeatherDisplay:10.37,2013-04-02 13:00:00,
2013-04-02 06:05:00,0.0,-69.2,30.08,SSW,212,0.0,0.0,2,0.00,CLR,,0.00,WeatherDisplay:10.37,2013-04-02 13:05:00,
2013-04-02 06:10:00,0.0,-69.2,30.08,SSW,212,0.0,0.0,2,0.00,CLR,,0.00,WeatherDisplay:10.37,2013-04-02 13:10:00,
2013-04-02 06:15:00,0.0,-69.2,30.08,SSW,212,0.0,0.0,2,0.00,CLR,,0.00,WeatherDisplay:10.37,2013-04-02 13:15:00,
2013-04-02 06:20:00,0.0,-69.2,30.08,SSW,212,0.0,0.0,2,0.00,CLR,,0.00,WeatherDisplay:10.37,2013-04-02 13:20:00,
2013-04-02 06:25:00,0.0,-69.2,30.08,SSW,212,0.0,0.0,2,0.00,CLR,,0.00,WeatherDisplay:10.37,2013-04-02 13:25:00,
2013-04-02 06:30:00,0.0,-69.2,30.08,SSW,212,0.0,0.0,2,0.00,CLR,,0.00,WeatherDisplay:10.37,2013-04-02 13:30:00,
2013-04-02 06:35:00,0.0,-69.2,30.08,SE,133,1.2,1.2,2,0.00,CLR,,0.00,WeatherDisplay:10.37,2013-04-02 13:35:00,
2013-04-02 06:40:00,0.0,-69.2,30.08,ESE,120,3.5,3.5,2,0.00,CLR,,0.00,WeatherDisplay:10.37,2013-04-02 13:40:00,
2013-04-02 06:45:00,0.0,-69.2,30.08,SSE,151,0.0,0.0,2,0.00,CLR,,0.00,WeatherDisplay:10.37,2013-04-02 13:45:00,
2013-04-02 06:50:00,0.0,-69.2,30.08,SSE,151,0.0,0.0,2,0.00,CLR,,0.00,WeatherDisplay:10.37,2013-04-02 13:50:00,
2013-04-02 06:55:00,0.0,-69.2,30.08,SSE,151,0.0,0.0,2,0.00,CLR,,0.00,WeatherDisplay:10.37,2013-04-02 13:55:00,
2013-04-02 07:00:00,0.0,-69.2,30.08,SSE,151,0.0,0.0,2,0.00,CLR,,0.00,WeatherDisplay:10.37,2013-04-02 14:00:00,
2013-04-02 07:05:00,0.0,-69.2,30.08,SE,131,5.8,5.8,2,0.00,CLR,,0.00,WeatherDisplay:10.37,2013-04-02 14:05:00,
2013-04-02 07:10:00,0.0,-69.2,30.08,ESE,106,3.5,3.5,2,0.00,CLR,,0.00,WeatherDisplay:10.37,2013-04-02 14:10:00,
2013-04-02 07:15:00,0.0,-69.2,30.08,SE,124,0.0,0.0,2,0.00,CLR,,0.00,WeatherDisplay:10.37,2013-04-02 14:15:00,
2013-04-02 07:20:00,0.0,-69.2,30.08,SE,124,0.0,0.0,2,0.00,CLR,,0.00,WeatherDisplay:10.37,2013-04-02 14:20:00,
2013-04-02 07:25:00,0.0,-69.2,30.08,SE,124,0.0,0.0,2,0.00,CLR,,0.00,WeatherDisplay:10.37,2013-04-02 14:25:00,
2013-04-02 07:30:00,0.0,-69.2,30.08,SE,124,0.0,0.0,2,0.00,CLR,,0.00,WeatherDisplay:10.37,2013-04-02 14:30:00,
2013-04-02 07:35:00,0.0,-69.2,30.08,SE,124,0.0,0.0,2,0.00,CLR,,0.00,WeatherDisplay:10.37,2013-04-02 14:35:00,
2013-04-02 07:40:00,0.0,-69.2,30.08,South,178,3.5,3.5,2,0.00,CLR,,0.00,WeatherDisplay:10.37,2013-04-02 14:40:00,
2013-04-02 07:45:00,0.0,-69.2,30.08,SE,138,1.2,0.0,2,0.00,CLR,,0.00,WeatherDisplay:10.37,2013-04-02 14:45:00,
2013-04-02 07:50:00,0.0,-69.2,30.08,SSW,210,3.5,3.5,2,0.00,CLR,,0.00,WeatherDisplay:10.37,2013-04-02 14:50:00,
2013-04-02 07:55:00,0.0,-69.2,30.08,SSW,203,2.4,2.4,2,0.00,CLR,,0.00,WeatherDisplay:10.37,2013-04-02 14:55:00,
2013-04-02 08:00:00,0.0,-69.2,30.08,SE,133,3.4,3.4,2,0.00,CLR,,0.00,WeatherDisplay:10.37,2013-04-02 15:00:00,
2013-04-02 08:05:00,0.0,-69.2,30.08,South,172,2.3,2.3,2,0.00,CLR,,0.00,WeatherDisplay:10.37,2013-04-02 15:05:00,
2013-04-02 08:10:00,0.0,-69.2,30.08,South,169,0.0,0.0,2,0.00,CLR,,0.00,WeatherDisplay:10.37,2013-04-02 15:10:00,
2013-04-02 08:15:00,0.0,-69.2,30.08,SSE,148,1.2,1.4,2,0.00,CLR,,0.00,WeatherDisplay:10.37,2013-04-02 15:15:00,
2013-04-02 08:20:00,0.0,-69.2,30.08,South,172,3.5,3.5,2,0.00,CLR,,0.00,WeatherDisplay:10.37,2013-04-02 15:20:00,
2013-04-02 08:25:00,0.0,-69.2,30.08,South,176,3.5,3.5,2,0.00,CLR,,0.00,WeatherDisplay:10.37,2013-04-02 15:25:00,
2013-04-02 08:30:00,0.0,-69.2,30.08,SSE,152,3.5,3.5,2,0.00,CLR,,0.00,WeatherDisplay:10.37,2013-04-02 15:30:00,
2013-04-02 08:35:00,0.0,-69.2,30.08,SE,144,0.0,3.0,2,0.00,CLR,CLR,0.00,WeatherDisplay:10.37,2013-04-02 15:35:00,
2013-04-02 08:40:00,0.0,-69.2,30.08,ESE,112,0.0,0.0,2,0.00,CLR,CLR,0.00,WeatherDisplay:10.37,2013-04-02 15:40:00,
2013-04-02 08:46:00,0.0,-69.2,30.08,ESE,110,0.0,0.0,2,0.00,CLR,,0.00,WeatherDisplay:10.37,2013-04-02 15:46:00,
2013-04-02 08:51:00,0.0,-69.2,30.08,WSW,251,0.0,0.0,2,0.00,CLR,,0.00,WeatherDisplay:10.37,2013-04-02 15:51:00,
2013-04-02 08:57:00,0.0,-69.2,30.08,WSW,251,0.0,0.0,2,0.00,CLR,,0.00,WeatherDisplay:10.37,2013-04-02 15:57:00,
2013-04-02 09:02:00,0.0,-69.2,30.08,SSW,203,1.4,1.4,2,0.00,CLR,,0.00,WeatherDisplay:10.37,2013-04-02 16:02:00,
2013-04-02 09:07:00,0.0,-69.2,30.08,SE,140,4.6,4.6,2,0.00,CLR,,0.00,WeatherDisplay:10.37,2013-04-02 16:07:00,
2013-04-02 09:12:00,0.0,-69.2,30.08,SE,140,0.0,0.0,2,0.00,CLR,,0.00,WeatherDisplay:10.37,2013-04-02 16:12:00,
2013-04-02 09:17:00,0.0,-69.2,30.08,SSW,208,1.9,1.9,2,0.00,CLR,,0.00,WeatherDisplay:10.37,2013-04-02 16:17:00,
2013-04-02 09:22:00,0.0,-69.2,30.08,SSW,193,0.0,0.0,2,0.00,CLR,,0.00,WeatherDisplay:10.37,2013-04-02 16:22:00,
2013-04-02 09:27:00,0.0,-69.2,30.08,SSW,193,0.0,0.0,2,0.00,CLR,,0.00,WeatherDisplay:10.37,2013-04-02 16:27:00,
2013-04-02 09:32:00,0.0,-69.2,30.07,SSW,193,0.0,0.0,2,0.00,CLR,,0.00,WeatherDisplay:10.37,2013-04-02 16:32:00,
2013-04-02 09:37:00,0.0,-69.2,30.08,South,191,4.4,4.4,2,0.00,CLR,,0.00,WeatherDisplay:10.37,2013-04-02 16:37:00,
2013-04-02 09:43:00,0.0,-69.2,30.08,SE,145,4.6,0.0,2,0.00,CLR,,0.00,WeatherDisplay:10.37,2013-04-02 16:43:00,
2013-04-02 09:48:00,0.0,-69.2,30.08,South,181,3.5,3.5,2,0.00,CLR,,0.00,WeatherDisplay:10.37,2013-04-02 16:48:00,
2013-04-02 09:53:00,0.0,-69.2,30.08,South,182,5.7,5.7,2,0.00,CLR,,0.00,WeatherDisplay:10.37,2013-04-02 16:53:00,
2013-04-02 09:58:00,0.0,-69.2,30.08,South,174,4.6,4.6,2,0.00,CLR,,0.00,WeatherDisplay:10.37,2013-04-02 16:58:00,
2013-04-02 10:03:00,0.0,-69.2,30.08,SW,215,2.3,2.3,2,0.00,CLR,,0.00,WeatherDisplay:10.37,2013-04-02 17:03:00,
2013-04-02 10:08:00,0.0,-69.2,30.08,South,175,6.9,6.9,2,0.00,CLR,,0.00,WeatherDisplay:10.37,2013-04-02 17:08:00,
2013-04-02 10:13:00,0.0,-69.2,30.08,SW,236,1.2,1.2,2,0.00,CLR,,0.00,WeatherDisplay:10.37,2013-04-02 17:13:00,
2013-04-02 10:18:00,0.0,-69.2,30.09,SSE,162,3.5,3.5,2,0.00,CLR,,0.00,WeatherDisplay:10.37,2013-04-02 17:18:00,
2013-04-02 10:23:00,0.0,-69.2,30.09,South,185,4.6,4.6,2,0.00,CLR,,0.00,WeatherDisplay:10.37,2013-04-02 17:23:00,
2013-04-02 10:28:00,0.0,-69.2,30.09,SSE,147,0.0,0.0,2,0.00,CLR,,0.00,WeatherDisplay:10.37,2013-04-02 17:28:00,
2013-04-02 10:33:00,0.0,-69.2,30.09,South,175,0.0,0.0,2,0.00,CLR,,0.00,WeatherDisplay:10.37,2013-04-02 17:33:00,
2013-04-02 10:38:00,0.0,-69.2,30.09,SSE,148,3.5,3.5,2,0.00,CLR,,0.00,WeatherDisplay:10.37,2013-04-02 17:38:00,
2013-04-02 10:43:00,0.0,-69.2,30.08,South,186,2.3,2.3,2,0.00,CLR,,0.00,WeatherDisplay:10.37,2013-04-02 17:43:00,
2013-04-02 10:48:00,0.0,-69.2,30.09,SE,134,2.3,2.3,2,0.00,CLR,,0.00,WeatherDisplay:10.37,2013-04-02 17:48:00,
2013-04-02 10:53:00,0.0,-69.2,30.09,SSW,199,3.5,3.5,2,0.00,CLR,,0.00,WeatherDisplay:10.37,2013-04-02 17:53:00,
2013-04-02 10:58:00,0.0,-69.2,30.09,SSW,199,2.3,0.0,2,0.00,CLR,,0.00,WeatherDisplay:10.37,2013-04-02 17:58:00,
2013-04-02 11:03:00,0.0,-69.2,30.09,SW,217,2.6,2.6,2,0.00,CLR,,0.00,WeatherDisplay:10.37,2013-04-02 18:03:00,
2013-04-02 11:08:00,0.0,-69.2,30.09,South,179,4.6,4.6,2,0.00,CLR,,0.00,WeatherDisplay:10.37,2013-04-02 18:08:00,
2013-04-02 11:13:00,0.0,-69.2,30.09,SSW,209,0.0,0.0,2,0.00,CLR,,0.00,WeatherDisplay:10.37,2013-04-02 18:13:00,
2013-04-02 11:18:00,0.0,-69.2,30.08,SSW,209,0.9,0.9,2,0.00,CLR,,0.00,WeatherDisplay:10.37,2013-04-02 18:18:00,
2013-04-02 11:23:00,0.0,-69.2,30.09,South,171,3.5,3.5,2,0.00,CLR,,0.00,WeatherDisplay:10.37,2013-04-02 18:23:00,
2013-04-02 11:28:00,0.0,-69.2,30.09,South,172,4.6,4.6,2,0.00,CLR,,0.00,WeatherDisplay:10.37,2013-04-02 18:28:00,
2013-04-02 11:33:00,0.0,-69.2,30.08,SE,136,4.6,4.6,2,0.00,CLR,,0.00,WeatherDisplay:10.37,2013-04-02 18:33:00,
2013-04-02 11:39:00,0.0,-69.2,30.08,SSW,203,7.3,7.3,2,0.00,CLR,,0.00,WeatherDisplay:10.37,2013-04-02 18:39:00,
2013-04-02 11:44:00,0.0,-69.2,30.08,SSW,193,5.8,5.8,2,0.00,CLR,,0.00,WeatherDisplay:10.37,2013-04-02 18:44:00,
2013-04-02 11:49:00,0.0,-69.2,30.08,SW,220,6.9,6.9,2,0.00,CLR,,0.00,WeatherDisplay:10.37,2013-04-02 18:49:00,
2013-04-02 11:54:00,0.0,-69.2,30.08,SW,215,2.8,2.8,2,0.00,CLR,,0.00,WeatherDisplay:10.37,2013-04-02 18:54:00,
2013-04-02 11:59:00,0.0,-69.2,30.08,NW,318,3.3,3.3,2,0.00,CLR,,0.00,WeatherDisplay:10.37,2013-04-02 18:59:00,
2013-04-02 12:04:00,0.0,-69.2,30.08,SW,216,2.3,2.3,2,0.00,CLR,,0.00,WeatherDisplay:10.37,2013-04-02 19:04:00,
2013-04-02 12:09:00,0.0,-69.2,30.08,SSW,209,5.8,5.8,2,0.00,CLR,,0.00,WeatherDisplay:10.37,2013-04-02 19:09:00,
2013-04-02 12:15:00,0.0,-69.2,30.08,WNW,288,2.7,2.7,2,0.00,CLR,,0.00,WeatherDisplay:10.37,2013-04-02 19:15:00,
2013-04-02 12:20:00,0.0,-69.2,30.08,South,182,7.6,7.6,2,0.00,CLR,,0.00,WeatherDisplay:10.37,2013-04-02 19:20:00,
2013-04-02 12:25:00,0.0,-69.2,30.08,West,263,4.0,4.0,2,0.00,CLR,,0.00,WeatherDisplay:10.37,2013-04-02 19:25:00,
2013-04-02 12:30:00,0.0,-69.2,30.08,SSW,213,3.5,3.5,2,0.00,CLR,,0.00,WeatherDisplay:10.37,2013-04-02 19:30:00,
2013-04-02 12:35:00,0.0,-69.2,30.08,SW,219,5.8,5.8,2,0.00,CLR,,0.00,WeatherDisplay:10.37,2013-04-02 19:35:00,
2013-04-02 12:40:00,0.0,-69.2,30.07,SE,145,5.8,5.8,2,0.00,CLR,,0.00,WeatherDisplay:10.37,2013-04-02 19:40:00,
2013-04-02 12:45:00,0.0,-69.2,30.07,SSE,151,3.0,7.0,2,0.00,CLR,CLR,0.00,WeatherDisplay:10.37,2013-04-02 19:45:00,
2013-04-02 12:50:00,0.0,-69.2,30.07,South,185,4.6,4.6,2,0.00,CLR,,0.00,WeatherDisplay:10.37,2013-04-02 19:50:00,
2013-04-02 12:55:00,0.0,-69.2,30.07,South,189,1.0,4.0,2,0.00,CLR,CLR,0.00,WeatherDisplay:10.37,2013-04-02 19:55:00,
2013-04-02 13:00:00,0.0,-69.2,30.07,WSW,250,4.6,4.6,2,0.00,CLR,,0.00,WeatherDisplay:10.37,2013-04-02 20:00:00,
2013-04-02 13:05:00,0.0,-69.2,30.07,SW,235,2.0,6.0,2,0.00,CLR,CLR,0.00,WeatherDisplay:10.37,2013-04-02 20:05:00,
2013-04-02 13:11:00,0.0,-69.2,30.07,SSW,208,3.0,7.0,2,0.00,CLR,CLR,0.00,WeatherDisplay:10.37,2013-04-02 20:11:00,
2013-04-02 13:16:00,0.0,-69.2,30.07,SE,128,9.2,9.2,2,0.00,CLR,,0.00,WeatherDisplay:10.37,2013-04-02 20:16:00,
2013-04-02 13:21:00,0.0,-69.2,30.06,South,174,7.3,7.3,2,0.00,CLR,,0.00,WeatherDisplay:10.37,2013-04-02 20:21:00,
2013-04-02 13:26:00,0.0,-69.2,30.06,SSE,162,6.8,6.8,2,0.00,CLR,,0.00,WeatherDisplay:10.37,2013-04-02 20:26:00,
2013-04-02 13:31:00,0.0,-69.2,30.06,ENE,68,2.3,2.3,2,0.00,CLR,,0.00,WeatherDisplay:10.37,2013-04-02 20:31:00,
2013-04-02 13:37:00,0.0,-69.2,30.06,West,275,4.6,4.6,2,0.00,CLR,,0.00,WeatherDisplay:10.37,2013-04-02 20:37:00,
2013-04-02 13:42:00,0.0,-69.2,30.06,SW,236,6.9,6.9,2,0.00,CLR,,0.00,WeatherDisplay:10.37,2013-04-02 20:42:00,
2013-04-02 13:47:00,0.0,-69.2,30.06,ESE,119,4.6,4.6,2,0.00,CLR,,0.00,WeatherDisplay:10.37,2013-04-02 20:47:00,
2013-04-02 13:52:00,0.0,-69.2,30.06,SE,134,4.6,4.6,2,0.00,CLR,,0.00,WeatherDisplay:10.37,2013-04-02 20:52:00,
2013-04-02 13:57:00,0.0,-69.2,30.06,SSE,150,6.9,6.9,2,0.00,CLR,,0.00,WeatherDisplay:10.37,2013-04-02 20:57:00,
2013-04-02 14:02:00,0.0,-69.2,30.06,NNE,24,4.6,4.6,2,0.00,CLR,,0.00,WeatherDisplay:10.37,2013-04-02 21:02:00,
2013-04-02 14:07:00,0.0,-69.2,30.05,SE,144,4.6,4.6,2,0.00,CLR,,0.00,WeatherDisplay:10.37,2013-04-02 21:07:00,
2013-04-02 14:12:00,0.0,-69.2,30.05,WNW,294,6.9,6.9,2,0.00,CLR,,0.00,WeatherDisplay:10.37,2013-04-02 21:12:00,
2013-04-02 14:18:00,0.0,-69.2,30.05,South,191,7.4,7.4,2,0.00,CLR,,0.00,WeatherDisplay:10.37,2013-04-02 21:18:00,
2013-04-02 14:23:00,0.0,-69.2,30.05,SE,144,6.9,6.9,2,0.00,CLR,,0.00,WeatherDisplay:10.37,2013-04-02 21:23:00,
2013-04-02 14:28:00,0.0,-69.2,30.04,ESE,123,4.6,4.6,2,0.00,CLR,,0.00,WeatherDisplay:10.37,2013-04-02 21:28:00,
2013-04-02 14:34:00,0.0,-69.2,30.04,SSE,151,5.8,5.8,2,0.00,CLR,,0.00,WeatherDisplay:10.37,2013-04-02 21:34:00,
2013-04-02 14:39:00,0.0,-69.2,30.04,SSE,154,4.6,4.6,2,0.00,CLR,,0.00,WeatherDisplay:10.37,2013-04-02 21:39:00,
2013-04-02 14:44:00,0.0,-69.2,30.04,SE,133,4.6,4.6,2,0.00,CLR,,0.00,WeatherDisplay:10.37,2013-04-02 21:44:00,
2013-04-02 14:49:00,0.0,-69.2,30.04,East,79,4.2,4.2,2,0.00,CLR,,0.00,WeatherDisplay:10.37,2013-04-02 21:49:00,
2013-04-02 14:54:00,0.0,-69.2,30.04,SSE,165,6.9,6.9,2,0.00,CLR,,0.00,WeatherDisplay:10.37,2013-04-02 21:54:00,
2013-04-02 14:59:00,0.0,-69.2,30.04,SE,136,8.1,8.1,2,0.00,CLR,,0.00,WeatherDisplay:10.37,2013-04-02 21:59:00,
2013-04-02 15:04:00,0.0,-69.2,30.03,ESE,116,6.1,6.1,2,0.00,CLR,,0.00,WeatherDisplay:10.37,2013-04-02 22:04:00,
2013-04-02 15:09:00,0.0,-69.2,30.03,SSE,167,5.8,5.8,2,0.00,CLR,,0.00,WeatherDisplay:10.37,2013-04-02 22:09:00,
2013-04-02 15:14:00,0.0,-69.2,30.03,SE,143,5.2,5.2,2,0.00,CLR,,0.00,WeatherDisplay:10.37,2013-04-02 22:14:00,
2013-04-02 15:19:00,0.0,-69.2,30.03,South,178,3.7,4.0,2,0.00,CLR,,0.00,WeatherDisplay:10.37,2013-04-02 22:19:00,
2013-04-02 15:24:00,0.0,-69.2,30.03,SSW,192,6.9,6.9,2,0.00,CLR,,0.00,WeatherDisplay:10.37,2013-04-02 22:24:00,
2013-04-02 15:29:00,0.0,-69.2,30.03,SE,131,4.6,4.6,2,0.00,CLR,,0.00,WeatherDisplay:10.37,2013-04-02 22:29:00,
2013-04-02 15:34:00,0.0,-69.2,30.03,SSW,209,5.8,5.8,2,0.00,CLR,,0.00,WeatherDisplay:10.37,2013-04-02 22:34:00,
2013-04-02 15:39:00,0.0,-69.2,30.02,SSE,160,1.2,0.0,2,0.00,CLR,,0.00,WeatherDisplay:10.37,2013-04-02 22:39:00,
2013-04-02 15:44:00,0.0,-69.2,30.02,SW,226,2.3,2.3,2,0.00,CLR,,0.00,WeatherDisplay:10.37,2013-04-02 22:44:00,
2013-04-02 15:49:00,0.0,-69.2,30.02,SSW,192,2.3,2.3,2,0.00,CLR,,0.00,WeatherDisplay:10.37,2013-04-02 22:49:00,
2013-04-02 15:54:00,0.0,-69.2,30.02,South,188,3.5,3.5,2,0.00,CLR,,0.00,WeatherDisplay:10.37,2013-04-02 22:54:00,
2013-04-02 15:59:00,0.0,-69.2,30.01,SE,127,3.5,3.5,2,0.00,CLR,,0.00,WeatherDisplay:10.37,2013-04-02 22:59:00,
2013-04-02 16:04:00,0.0,-69.2,30.01,ESE,119,5.8,5.8,2,0.00,CLR,,0.00,WeatherDisplay:10.37,2013-04-02 23:04:00,
2013-04-02 16:09:00,0.0,-69.2,30.01,South,175,5.8,5.8,2,0.00,CLR,,0.00,WeatherDisplay:10.37,2013-04-02 23:09:00,
2013-04-02 16:14:00,0.0,-69.2,30.01,SSW,198,1.2,1.2,2,0.00,CLR,,0.00,WeatherDisplay:10.37,2013-04-02 23:14:00,
2013-04-02 16:19:00,0.0,-69.2,30.01,SSW,209,3.5,3.5,2,0.00,CLR,,0.00,WeatherDisplay:10.37,2013-04-02 23:19:00,
2013-04-02 16:24:00,0.0,-69.2,30.01,NW,322,2.3,2.3,2,0.00,CLR,,0.00,WeatherDisplay:10.37,2013-04-02 23:24:00,
2013-04-02 16:29:00,0.0,-69.2,30.01,East,80,3.5,3.5,2,0.00,CLR,,0.00,WeatherDisplay:10.37,2013-04-02 23:29:00,
2013-04-02 16:35:00,0.0,-69.2,30.01,ESE,110,4.6,4.6,2,0.00,CLR,,0.00,WeatherDisplay:10.37,2013-04-02 23:35:00,
2013-04-02 16:40:00,0.0,-69.2,30.00,SE,124,4.6,4.6,2,0.00,CLR,,0.00,WeatherDisplay:10.37,2013-04-02 23:40:00,
2013-04-02 16:45:00,0.0,-69.2,30.00,ESE,112,3.4,3.4,2,0.00,CLR,,0.00,WeatherDisplay:10.37,2013-04-02 23:45:00,
2013-04-02 16:50:00,0.0,-69.2,30.00,South,186,4.7,4.7,2,0.00,CLR,,0.00,WeatherDisplay:10.37,2013-04-02 23:50:00,
2013-04-02 16:55:00,0.0,-69.2,30.00,SW,233,3.5,3.5,2,0.00,CLR,,0.00,WeatherDisplay:10.37,2013-04-02 23:55:00,
2013-04-02 17:00:00,0.0,-69.2,30.00,South,186,0.0,0.0,2,0.00,CLR,,0.00,WeatherDisplay:10.37,2013-04-03 00:00:00,
2013-04-02 17:05:00,0.0,-69.2,30.00,NW,304,4.6,4.6,2,0.00,CLR,,0.00,WeatherDisplay:10.37,2013-04-03 00:05:00,
2013-04-02 17:10:00,0.0,-69.2,30.00,WNW,293,2.0,5.0,2,0.00,CLR,CLR,0.00,WeatherDisplay:10.37,2013-04-03 00:10:00,
2013-04-02 17:15:00,0.0,-69.2,30.00,WSW,256,2.3,2.3,2,0.00,CLR,,0.00,WeatherDisplay:10.37,2013-04-03 00:15:00,
2013-04-02 17:20:00,0.0,-69.2,30.00,ENE,65,1.0,1.0,2,0.00,CLR,,0.00,WeatherDisplay:10.37,2013-04-03 00:20:00,
2013-04-02 17:26:00,0.0,-69.2,30.00,ESE,102,3.5,3.5,2,0.00,CLR,,0.00,WeatherDisplay:10.37,2013-04-03 00:26:00,
2013-04-02 17:31:00,0.0,-69.2,29.99,SW,215,3.5,3.5,2,0.00,CLR,,0.00,WeatherDisplay:10.37,2013-04-03 00:31:00,
2013-04-02 17:36:00,0.0,-69.2,29.99,South,182,3.5,3.5,2,0.00,CLR,,0.00,WeatherDisplay:10.37,2013-04-03 00:36:00,
2013-04-02 17:41:00,0.0,-69.2,29.99,SE,141,5.8,5.8,2,0.00,CLR,,0.00,WeatherDisplay:10.37,2013-04-03 00:41:00,
2013-04-02 17:46:00,0.0,-69.2,29.99,East,79,2.3,2.3,2,0.00,CLR,,0.00,WeatherDisplay:10.37,2013-04-03 00:46:00,
2013-04-02 17:51:00,0.0,-69.2,29.99,SSW,193,1.2,1.2,2,0.00,CLR,,0.00,WeatherDisplay:10.37,2013-04-03 00:51:00,
2013-04-02 17:57:00,0.0,-69.2,29.99,South,191,3.0,3.0,2,0.00,CLR,,0.00,WeatherDisplay:10.37,2013-04-03 00:57:00,
2013-04-02 18:02:00,0.0,-69.2,29.99,SSW,209,1.2,0.0,2,0.00,CLR,,0.00,WeatherDisplay:10.37,2013-04-03 01:02:00,
2013-04-02 18:07:00,0.0,-69.2,29.99,WNW,292,2.3,0.0,2,0.00,CLR,,0.00,WeatherDisplay:10.37,2013-04-03 01:07:00,
2013-04-02 18:12:00,0.0,-69.2,29.99,WNW,292,0.0,0.0,2,0.00,CLR,,0.00,WeatherDisplay:10.37,2013-04-03 01:12:00,
2013-04-02 18:17:00,0.0,-69.2,29.99,WNW,299,0.8,0.8,2,0.00,CLR,,0.00,WeatherDisplay:10.37,2013-04-03 01:17:00,
2013-04-02 18:22:00,0.0,-69.2,29.99,WSW,258,0.0,0.0,2,0.00,CLR,,0.00,WeatherDisplay:10.37,2013-04-03 01:22:00,
2013-04-02 18:27:00,0.0,-69.2,29.99,WSW,258,0.0,0.0,2,0.00,CLR,,0.00,WeatherDisplay:10.37,2013-04-03 01:27:00,
2013-04-02 18:32:00,0.0,-69.2,29.99,WSW,258,0.0,0.0,2,0.00,CLR,,0.00,WeatherDisplay:10.37,2013-04-03 01:32:00,
2013-04-02 18:38:00,0.0,-69.2,29.99,WSW,258,0.0,0.0,2,0.00,CLR,,0.00,WeatherDisplay:10.37,2013-04-03 01:38:00,
2013-04-02 18:43:00,0.0,-69.2,29.99,WSW,258,0.0,0.0,2,0.00,CLR,,0.00,WeatherDisplay:10.37,2013-04-03 01:43:00,
2013-04-02 18:48:00,0.0,-69.2,29.99,WSW,258,0.0,0.0,2,0.00,CLR,,0.00,WeatherDisplay:10.37,2013-04-03 01:48:00,
2013-04-02 18:53:00,0.0,-69.2,29.99,WSW,258,0.0,0.0,2,0.00,CLR,,0.00,WeatherDisplay:10.37,2013-04-03 01:53:00,
2013-04-02 18:58:00,0.0,-69.2,29.98,WSW,258,0.0,0.0,2,0.00,CLR,,0.00,WeatherDisplay:10.37,2013-04-03 01:58:00,
2013-04-02 19:03:00,0.0,-69.2,29.98,WSW,258,0.0,0.0,2,0.00,CLR,,0.00,WeatherDisplay:10.37,2013-04-03 02:03:00,
2013-04-02 19:08:00,0.0,-69.2,29.99,WSW,258,0.0,0.0,2,0.00,CLR,,0.00,WeatherDisplay:10.37,2013-04-03 02:08:00,
2013-04-02 19:13:00,0.0,-69.2,29.99,WSW,258,0.0,0.0,2,0.00,CLR,,0.00,WeatherDisplay:10.37,2013-04-03 02:13:00,
2013-04-02 19:18:00,0.0,-69.2,29.99,WSW,258,0.0,0.0,2,0.00,CLR,,0.00,WeatherDisplay:10.37,2013-04-03 02:18:00,
2013-04-02 19:23:00,0.0,-69.2,29.99,WSW,258,0.0,0.0,2,0.00,CLR,,0.00,WeatherDisplay:10.37,2013-04-03 02:23:00,
2013-04-02 19:28:00,0.0,-69.2,29.98,WSW,258,0.0,0.0,2,0.00,CLR,,0.00,WeatherDisplay:10.37,2013-04-03 02:28:00,
2013-04-02 19:33:00,0.0,-69.2,29.98,WSW,258,0.0,0.0,2,0.00,CLR,,0.00,WeatherDisplay:10.37,2013-04-03 02:33:00,
2013-04-02 19:38:00,0.0,-69.2,29.99,West,275,2.0,2.0,2,0.00,CLR,,0.00,WeatherDisplay:10.37,2013-04-03 02:38:00,
2013-04-02 19:43:00,0.0,-69.2,29.98,West,281,3.5,3.5,2,0.00,CLR,,0.00,WeatherDisplay:10.37,2013-04-03 02:43:00,
2013-04-02 19:48:00,0.0,-69.2,29.99,West,274,4.6,4.6,2,0.00,CLR,,0.00,WeatherDisplay:10.37,2013-04-03 02:48:00,
2013-04-02 19:53:00,0.0,-69.2,29.99,WNW,288,5.8,5.8,2,0.00,CLR,,0.00,WeatherDisplay:10.37,2013-04-03 02:53:00,
2013-04-02 19:58:00,0.0,-69.2,29.99,WNW,298,3.5,3.5,2,0.00,CLR,,0.00,WeatherDisplay:10.37,2013-04-03 02:58:00,
2013-04-02 20:04:00,0.0,-69.2,29.99,WNW,298,2.3,2.3,2,0.00,CLR,,0.00,WeatherDisplay:10.37,2013-04-03 03:04:00,
2013-04-02 20:09:00,0.0,-69.2,29.99,West,280,2.5,2.5,2,0.00,CLR,,0.00,WeatherDisplay:10.37,2013-04-03 03:09:00,
2013-04-02 20:14:00,0.0,-69.2,29.99,West,281,2.3,2.3,2,0.00,CLR,,0.00,WeatherDisplay:10.37,2013-04-03 03:14:00,
2013-04-02 20:19:00,0.0,-69.2,29.99,West,264,2.4,2.4,2,0.00,CLR,,0.00,WeatherDisplay:10.37,2013-04-03 03:19:00,
2013-04-02 20:24:00,0.0,-69.2,30.00,WSW,253,3.5,3.5,2,0.00,CLR,,0.00,WeatherDisplay:10.37,2013-04-03 03:24:00,
2013-04-02 20:29:00,0.0,-69.2,29.99,WSW,250,2.3,2.3,2,0.00,CLR,,0.00,WeatherDisplay:10.37,2013-04-03 03:29:00,
2013-04-02 20:35:00,0.0,-69.2,30.00,West,275,2.3,2.3,2,0.00,CLR,,0.00,WeatherDisplay:10.37,2013-04-03 03:35:00,
2013-04-02 20:40:00,0.0,-69.2,30.00,West,275,0.0,0.0,2,0.00,CLR,,0.00,WeatherDisplay:10.37,2013-04-03 03:40:00,
2013-04-02 20:45:00,0.0,-69.2,30.00,West,275,0.0,0.0,2,0.00,CLR,,0.00,WeatherDisplay:10.37,2013-04-03 03:45:00,
2013-04-02 20:50:00,0.0,-69.2,30.00,West,275,0.0,0.0,2,0.00,CLR,,0.00,WeatherDisplay:10.37,2013-04-03 03:50:00,
2013-04-02 20:55:00,0.0,-69.2,30.00,West,275,0.0,0.0,2,0.00,CLR,,0.00,WeatherDisplay:10.37,2013-04-03 03:55:00,
2013-04-02 21:00:00,0.0,-69.2,30.01,West,275,0.0,0.0,2,0.00,CLR,,0.00,WeatherDisplay:10.37,2013-04-03 04:00:00,
2013-04-02 21:05:00,0.0,-69.2,30.00,West,275,0.0,0.0,2,0.00,CLR,,0.00,WeatherDisplay:10.37,2013-04-03 04:05:00,
2013-04-02 21:10:00,0.0,-69.2,30.01,West,275,0.0,0.0,2,0.00,CLR,,0.00,WeatherDisplay:10.37,2013-04-03 04:10:00,
2013-04-02 21:15:00,0.0,-69.2,30.01,ENE,69,0.0,0.0,2,0.00,CLR,,0.00,WeatherDisplay:10.37,2013-04-03 04:15:00,
2013-04-02 21:20:00,0.0,-69.2,30.01,ENE,69,0.0,0.0,2,0.00,CLR,,0.00,WeatherDisplay:10.37,2013-04-03 04:20:00,
2013-04-02 21:25:00,0.0,-69.2,30.01,NE,37,2.3,2.3,2,0.00,CLR,,0.00,WeatherDisplay:10.37,2013-04-03 04:25:00,
2013-04-02 21:30:00,0.0,-69.2,30.01,NE,37,0.0,0.0,2,0.00,CLR,,0.00,WeatherDisplay:10.37,2013-04-03 04:30:00,
2013-04-02 21:35:00,0.0,-69.2,30.01,NNE,14,1.2,0.0,2,0.00,CLR,,0.00,WeatherDisplay:10.37,2013-04-03 04:35:00,
2013-04-02 21:40:00,0.0,-69.2,30.01,North,4,3.5,3.5,2,0.00,CLR,,0.00,WeatherDisplay:10.37,2013-04-03 04:40:00,
2013-04-02 21:45:00,0.0,-69.2,30.01,NNE,13,3.5,3.5,2,0.00,CLR,,0.00,WeatherDisplay:10.37,2013-04-03 04:45:00,
2013-04-02 21:50:00,0.0,-69.2,30.01,NNW,342,2.4,2.4,2,0.00,CLR,,0.00,WeatherDisplay:10.37,2013-04-03 04:50:00,
2013-04-02 21:55:00,0.0,-69.2,30.01,North,357,2.3,2.5,2,0.00,CLR,,0.00,WeatherDisplay:10.37,2013-04-03 04:55:00,
2013-04-02 22:00:00,0.0,-69.2,30.01,North,6,4.6,4.6,2,0.00,CLR,,0.00,WeatherDisplay:10.37,2013-04-03 05:00:00,
2013-04-02 22:05:00,0.0,-69.2,30.01,North,360,2.7,2.7,2,0.00,CLR,,0.00,WeatherDisplay:10.37,2013-04-03 05:05:00,
2013-04-02 22:10:00,0.0,-69.2,30.01,NNW,336,3.3,3.3,2,0.00,CLR,,0.00,WeatherDisplay:10.37,2013-04-03 05:10:00,
2013-04-02 22:15:00,0.0,-69.2,30.01,NNW,333,3.5,3.5,2,0.00,CLR,,0.00,WeatherDisplay:10.37,2013-04-03 05:15:00,
2013-04-02 22:20:00,0.0,-69.2,30.01,North,353,3.5,3.5,2,0.00,CLR,,0.00,WeatherDisplay:10.37,2013-04-03 05:20:00,
2013-04-02 22:25:00,0.0,-69.2,30.01,NNW,330,4.6,4.6,2,0.00,CLR,,0.00,WeatherDisplay:10.37,2013-04-03 05:25:00,
2013-04-02 22:30:00,0.0,-69.2,30.01,NW,315,2.5,2.7,2,0.00,CLR,,0.00,WeatherDisplay:10.37,2013-04-03 05:30:00,
2013-04-02 22:35:00,0.0,-69.2,30.01,WNW,291,0.0,0.0,2,0.00,CLR,,0.00,WeatherDisplay:10.37,2013-04-03 05:35:00,
2013-04-02 22:40:00,0.0,-69.2,30.01,NNW,332,4.6,4.6,2,0.00,CLR,,0.00,WeatherDisplay:10.37,2013-04-03 05:40:00,
2013-04-02 22:45:00,0.0,-69.2,30.01,NNW,339,4.6,4.6,2,0.00,CLR,,0.00,WeatherDisplay:10.37,2013-04-03 05:45:00,
2013-04-02 22:50:00,0.0,-69.2,30.01,NNE,18,3.5,3.5,2,0.00,CLR,,0.00,WeatherDisplay:10.37,2013-04-03 05:50:00,
2013-04-02 22:55:00,0.0,-69.2,30.01,NNW,336,1.2,0.0,2,0.00,CLR,,0.00,WeatherDisplay:10.37,2013-04-03 05:55:00,
2013-04-02 23:00:00,0.0,-69.2,30.02,NNW,336,0.0,0.0,2,0.00,CLR,,0.00,WeatherDisplay:10.37,2013-04-03 06:00:00,
2013-04-02 23:05:00,0.0,-69.2,30.02,NNW,336,0.0,0.0,2,0.00,CLR,,0.00,WeatherDisplay:10.37,2013-04-03 06:05:00,
2013-04-02 23:10:00,0.0,-69.2,30.02,North,6,4.6,4.6,2,0.00,CLR,,0.00,WeatherDisplay:10.37,2013-04-03 06:10:00,
2013-04-02 23:15:00,0.0,-69.2,30.02,North,353,4.6,4.6,2,0.00,CLR,,0.00,WeatherDisplay:10.37,2013-04-03 06:15:00,
2013-04-02 23:20:00,0.0,-69.2,30.02,NNE,25,2.3,2.3,2,0.00,CLR,,0.00,WeatherDisplay:10.37,2013-04-03 06:20:00,
2013-04-02 23:25:00,0.0,-69.2,30.02,North,11,2.3,2.3,2,0.00,CLR,,0.00,WeatherDisplay:10.37,2013-04-03 06:25:00,
2013-04-02 23:30:00,0.0,-69.2,30.02,NNE,13,0.0,0.0,2,0.00,CLR,CLR,0.00,WeatherDisplay:10.37,2013-04-03 06:30:00,
2013-04-02 23:35:00,0.0,-69.2,30.02,North,11,0.0,0.0,2,0.00,CLR,,0.00,WeatherDisplay:10.37,2013-04-03 06:35:00,
2013-04-02 23:40:00,0.0,-69.2,30.02,North,8,2.3,2.3,2,0.00,CLR,,0.00,WeatherDisplay:10.37,2013-04-03 06:40:00,
2013-04-02 23:45:00,0.0,-69.2,30.02,NNW,347,1.2,1.2,2,0.00,CLR,,0.00,WeatherDisplay:10.37,2013-04-03 06:45:00,
2013-04-02 23:51:00,0.0,-69.2,30.02,NNW,347,0.0,0.0,2,0.00,CLR,,0.00,WeatherDisplay:10.37,2013-04-03 06:51:00,
2013-04-02 23:56:00,0.0,-69.2,30.02,NNW,347,0.0,0.0,2,0.00,CLR,,0.00,WeatherDisplay:10.37,2013-04-03 06:56:00,